Location: Ar Ranvel
(48.3000°N, 4.8833°W)
Time: 10:13:41
(UTC+00:00)

Cosmos 1452 Rocket - Pass Details

Date: 16 June 2021
Orbit: 768 x 774 km, 74.1° (Epoch: 01 August)

Event Time Altitude Azimuth Distance (km) Brightness Sun altitude
Rises 20:54:18 0° 180° (S) 3,237 6.3 -4.8°
Reaches altitude 10° 20:56:46 10° 173° (S) 2,314 5.5 -5.1°
Maximum altitude 21:01:41 42° 104° (ESE) 1,095 4.0 -5.7°
Drops below altitude 10° 21:06:38 10° 35° (NE) 2,328 6.2 -6.2°
Sets 21:09:07 0° 29° (NNE) 3,259 7.0 -6.5°
